Location: Rostock
(54.0884°N, 12.1234°E)
Time: 08:44:58
(UTC+02:00)

ISS - Visible Passes

Search period start: 24 September 2017 00:00
Search period end: 04 October 2017 00:00
Orbit: 401 x 407 km, 51.6° (Epoch: 24 September)

Date Brightness Start Highest point End Pass type
(mag) Time Alt. Az. Time Alt. Az. Time Alt. Az.
26 Sep -1.5 20:29:17 10° S 20:29:53 12° SSE 20:29:53 12° SSE visible
27 Sep -1.6 21:11:42 10° SW 21:12:44 17° SSW 21:12:44 17° SSW visible
28 Sep -2.4 20:19:49 10° SSW 20:22:25 22° SSE 20:22:45 21° SE visible
28 Sep -0.8 21:55:16 10° WSW 21:55:24 11° WSW 21:55:24 11° WSW visible
29 Sep -1.8 19:28:16 10° S 19:30:16 15° SE 19:32:16 10° ESE visible
29 Sep -2.7 21:03:03 10° SW 21:05:17 33° SSW 21:05:17 33° SSW visible
30 Sep -2.9 20:10:55 10° SW 20:13:54 32° SSE 20:15:03 25° ESE visible
30 Sep -1.2 21:46:51 10° WSW 21:47:42 17° WSW 21:47:42 17° WSW visible
01 Oct -2.4 19:18:57 10° SSW 19:21:40 24° SSE 19:24:23 10° E visible
01 Oct -3.3 20:54:32 10° WSW 20:57:23 49° SSW 20:57:23 49° SSW visible
02 Oct -3.3 20:02:16 10° WSW 20:05:24 44° SSE 20:07:01 24° ESE visible
02 Oct -1.4 21:38:26 10° W 21:39:39 20° WSW 21:39:39 20° WSW visible
03 Oct -3.6 20:46:04 10° W 20:49:14 56° S 20:49:14 56° S visible
